Location: Rathdrum
(47.8130°N, 116.8960°W)
Time: 22:06:38
(UTC-07:00)

Amateur Radio Satellites - All Passes

Search period start: 27 August 2014 21:36
Search period end: 28 August 2014 21:36
Location: Rathdrum, 47.8130°N, 116.8960°W

Satellite Date Start Highest point End Downlink Frequencies (MHz)
Time Altitude Azimuth
STRAND 1 27 Aug 21:56:29 21:57:50 11° 309° (NW) 21:59:11 ?
AO-40 27 Aug 21:59:23 03:20:05 34° 182° (S) 09:14:38 Beacon 2401.320
UKube-1 27 Aug 22:24:03 22:27:19 21° 267° (W) 22:30:37 145.840 MHz, 145.915 MHz
Oscar 11 27 Aug 22:33:04 22:36:44 27° 266° (W) 22:40:27 145.825 FM, Beacon 2401.500 USB
FUNcube-1 27 Aug 22:49:30 22:53:27 42° 262° (W) 22:57:31 145.950 - 145.970 MHz USB
HO-68 27 Aug 22:56:00 22:59:48 15° 275° (W) 23:03:37 435.675 MHz FM
KITSAT 1 27 Aug 22:57:00 23:02:39 21° 103° (ESE) 23:08:19 435.175 FM
MaSat-1 27 Aug 23:11:34 23:16:27 81° 60° (ENE) 23:20:41 437.345 MHz
Saudisat 1A 27 Aug 23:38:15 23:42:30 50° 122° (ESE) 23:46:47 436.775 MHz
Sapphire 27 Aug 23:51:25 23:53:49 13° 20° (NNE) 23:56:12 437.095 MHz 1200 baud AX-25 AFSK
PCSat 28 Aug 00:20:56 00:24:24 17° 28° (NNE) 00:27:52 145.825 MHz
KITSAT 1 28 Aug 00:48:50 00:56:56 85° 123° (ESE) 01:05:05 435.175 FM
MaSat-1 28 Aug 00:50:30 00:52:38 13° 261° (W) 00:54:39 437.345 MHz
Oscar 16 28 Aug 01:13:01 01:16:21 17° 89° (E) 01:19:41 437.025 USB, Beacon 2401.1428
Saudisat 1A 28 Aug 01:18:26 01:22:18 29° 322° (NW) 01:26:11 436.775 MHz
AO-27 28 Aug 01:33:52 01:35:11 11° 85° (E) 01:36:30 436.795 MHz FM
Sapphire 28 Aug 01:33:56 01:38:56 35° 44° (NE) 01:43:54 437.095 MHz 1200 baud AX-25 AFSK
PCSat 28 Aug 02:03:39 02:09:02 57° 51° (NE) 02:14:22 145.825 MHz
Oscar 19 28 Aug 02:16:42 02:21:51 57° 101° (E) 02:26:57 437.125 CW, 437.150 USB
TMSAT-1 28 Aug 02:36:41 02:39:37 15° 87° (E) 02:42:32 436.925 FM
JAS-1B 28 Aug 02:38:00 02:44:38 39° 94° (E) 02:50:19 435.800 - 435.900 CW/SSB
OPAL 28 Aug 02:39:16 02:42:37 18° 54° (NE) 02:46:00 ?
ITAMSAT 1 28 Aug 02:42:15 02:47:12 44° 99° (E) 02:52:08 435.822 SSB
KITSAT 1 28 Aug 02:46:02 02:53:17 34° 328° (NNW) 03:00:33 435.175 FM
Oscar 16 28 Aug 02:51:04 02:56:17 74° 287° (WNW) 03:01:27 437.025 USB, Beacon 2401.1428
Uribyol 2 28 Aug 02:52:55 02:58:03 57° 101° (E) 03:03:09 436.500 FM
Saudisat 1A 28 Aug 03:02:10 03:03:19 11° 345° (NNW) 03:04:29 436.775 MHz
AO-Echo 28 Aug 03:08:08 03:12:53 82° 104° (ESE) 03:17:35 ?
AO-27 28 Aug 03:10:22 03:15:35 77° 104° (ESE) 03:20:46 436.795 MHz FM
Sapphire 28 Aug 03:17:19 03:22:31 48° 244° (WSW) 03:27:42 437.095 MHz 1200 baud AX-25 AFSK
Gurwin Techsat 1B 28 Aug 03:21:27 03:26:35 47° 99° (E) 03:31:41 435.225 FM
PCSat 28 Aug 03:47:38 03:52:07 27° 250° (WSW) 03:56:34 145.825 MHz
AO-7 28 Aug 03:48:27 03:54:19 21° 89° (E) 04:00:07 29.400 - 29.500 MHz
Oscar 10/S400 28 Aug 03:52:31 04:58:26 28° 236° (WSW) 08:22:47 145.825 - 145.975 CW/USB, Beacon 145.810 USB
Oscar 19 28 Aug 03:56:45 04:00:50 24° 299° (WNW) 04:04:54 437.125 CW, 437.150 USB
Uosat F 28 Aug 03:57:12 04:00:02 15° 89° (E) 04:02:53 435.120 FM
TMSAT-1 28 Aug 04:14:54 04:20:14 85° 286° (WNW) 04:25:32 436.925 FM
OPAL 28 Aug 04:15:49 04:20:52 81° 253° (WSW) 04:26:03 ?
ITAMSAT 1 28 Aug 04:22:06 04:26:32 30° 297° (WNW) 04:30:58 435.822 SSB
JAS-1B 28 Aug 04:28:35 04:35:24 43° 298° (WNW) 04:41:13 435.800 - 435.900 CW/SSB
Oscar 16 28 Aug 04:32:24 04:34:45 13° 307° (NW) 04:37:06 437.025 USB, Beacon 2401.1428
Uribyol 2 28 Aug 04:33:07 04:37:10 24° 300° (WNW) 04:41:13 436.500 FM
KITSAT 1 28 Aug 04:45:35 04:51:28 21° 357° (N) 04:57:21 435.175 FM
SO-50 28 Aug 04:48:19 04:52:44 60° 123° (ESE) 04:57:17 436.795 FM
AO-Echo 28 Aug 04:48:27 04:51:02 15° 303° (WNW) 04:53:37 ?
AO-27 28 Aug 04:51:03 04:54:31 18° 303° (WNW) 04:57:59 436.795 MHz FM
Gurwin Techsat 1B 28 Aug 05:01:51 05:06:21 29° 297° (WNW) 05:10:50 435.225 FM
Hamsat 28 Aug 05:24:38 05:25:10 10° 86° (E) 05:25:42 145.90 MHz
UOSAT-12 28 Aug 05:26:10 05:28:46 15° 110° (ESE) 05:31:24 437.025 FM, 437.400 FM
Uosat F 28 Aug 05:34:25 05:39:26 78° 287° (WNW) 05:44:25 435.120 FM
AO-7 28 Aug 05:39:54 05:48:16 86° 109° (ESE) 05:56:34 29.400 - 29.500 MHz
STRAND 1 28 Aug 05:55:18 06:00:02 40° 66° (ENE) 06:04:46 ?
TMSAT-1 28 Aug 05:56:26 05:59:23 15° 305° (NW) 06:02:21 436.925 FM
OPAL 28 Aug 05:58:54 06:00:36 12° 272° (W) 06:02:18 ?
JAS-2 28 Aug 06:18:46 06:23:29 34° 96° (E) 06:28:23 435.800 - 435.900 CW/SSB, 435.910 FM
JAS-1B 28 Aug 06:22:17 06:23:49 11° 324° (NW) 06:25:18 435.800 - 435.900 CW/SSB
Saudisat 1A 28 Aug 06:22:41 06:26:12 22° 34° (NE) 06:29:42 436.775 MHz
SO-50 28 Aug 06:29:48 06:33:39 27° 324° (NW) 06:37:37 436.795 FM
KITSAT 1 28 Aug 06:43:00 06:49:53 29° 26° (NNE) 06:56:44 435.175 FM
Hamsat 28 Aug 06:57:24 07:01:48 90° 103° (ESE) 07:06:08 145.90 MHz
UOSAT-12 28 Aug 07:03:37 07:08:16 84° 308° (NW) 07:13:02 437.025 FM, 437.400 FM
Uosat F 28 Aug 07:15:07 07:17:25 13° 306° (NW) 07:19:43 435.120 FM
RS-15 28 Aug 07:22:50 07:32:15 34° 107° (ESE) 07:41:32 29.354 - 29.394 USB, Beacon 29.352 USB
AO-7 28 Aug 07:33:33 07:40:12 28° 311° (NW) 07:46:49 29.400 - 29.500 MHz
STRAND 1 28 Aug 07:34:51 07:39:19 31° 265° (W) 07:43:49 ?
Saudisat 1A 28 Aug 08:01:51 08:06:16 75° 234° (SW) 08:10:40 436.775 MHz
JAS-2 28 Aug 08:03:59 08:08:40 35° 294° (WNW) 08:13:31 435.800 - 435.900 CW/SSB, 435.910 FM
SO-67 28 Aug 08:10:53 08:14:22 81° 283° (WNW) 08:17:49 435.3500 MHz FM
SO-50 28 Aug 08:14:23 08:15:50 11° 348° (NNW) 08:17:17 436.795 FM
HO-68 28 Aug 08:29:02 08:33:37 18° 87° (E) 08:38:11 435.675 MHz FM
Hamsat 28 Aug 08:35:17 08:37:05 12° 302° (WNW) 08:38:52 145.90 MHz
KITSAT 1 28 Aug 08:38:33 08:46:41 76° 52° (NE) 08:54:45 435.175 FM
UOSAT-12 28 Aug 08:45:35 08:49:08 21° 330° (NNW) 08:52:43 437.025 FM, 437.400 FM
RS-15 28 Aug 09:32:33 09:43:36 79° 311° (NW) 09:54:37 29.354 - 29.394 USB, Beacon 29.352 USB
SO-50 28 Aug 09:56:50 09:58:32 12° 14° (NNE) 10:00:15 436.795 FM
UKube-1 28 Aug 10:07:32 10:11:47 51° 101° (E) 10:16:00 145.840 MHz, 145.915 MHz
HO-68 28 Aug 10:15:09 10:22:22 85° 107° (ESE) 10:29:32 435.675 MHz FM
Oscar 11 28 Aug 10:16:28 10:20:40 43° 98° (E) 10:24:50 145.825 FM, Beacon 2401.500 USB
UOSAT-12 28 Aug 10:30:08 10:31:06 11° 354° (N) 10:32:05 437.025 FM, 437.400 FM
KITSAT 1 28 Aug 10:34:43 10:41:24 30° 253° (WSW) 10:48:03 435.175 FM
FUNcube-1 28 Aug 10:34:54 10:38:51 29° 95° (E) 10:42:50 145.950 - 145.970 MHz USB
SO-50 28 Aug 11:36:30 11:40:38 29° 37° (NE) 11:44:50 436.795 FM
JAS-1B 28 Aug 11:38:14 11:43:34 17° 45° (NE) 11:48:34 435.800 - 435.900 CW/SSB
UKube-1 28 Aug 11:44:31 11:47:39 20° 299° (WNW) 11:50:47 145.840 MHz, 145.915 MHz
RS-15 28 Aug 11:47:57 11:57:52 37° 340° (NNW) 12:07:54 29.354 - 29.394 USB, Beacon 29.352 USB
Oscar 11 28 Aug 11:53:11 11:56:37 23° 296° (WNW) 12:00:02 145.825 FM, Beacon 2401.500 USB
Oscar 19 28 Aug 11:59:52 12:03:26 19° 58° (ENE) 12:07:00 437.125 CW, 437.150 USB
HO-68 28 Aug 12:03:49 12:09:18 25° 308° (NW) 12:14:48 435.675 MHz FM
UOSAT-12 28 Aug 12:10:55 12:13:21 14° 19° (NNE) 12:15:47 437.025 FM, 437.400 FM
FUNcube-1 28 Aug 12:11:13 12:15:16 34° 292° (WNW) 12:19:22 145.950 - 145.970 MHz USB
ISS 28 Aug 12:21:16 12:24:31 53° 149° (SSE) 12:27:47 145.800 FM
ITAMSAT 1 28 Aug 12:27:01 12:30:05 16° 56° (NE) 12:33:08 435.822 SSB
Oscar 16 28 Aug 12:32:54 12:37:32 35° 65° (ENE) 12:42:13 437.025 USB, Beacon 2401.1428
Uribyol 2 28 Aug 12:36:55 12:40:34 20° 58° (ENE) 12:44:13 436.500 FM
AO-Echo 28 Aug 12:47:06 12:50:58 23° 62° (ENE) 12:54:45 ?
AO-27 28 Aug 12:53:54 12:58:07 26° 61° (ENE) 13:02:21 436.795 MHz FM
MaSat-1 28 Aug 13:03:56 13:07:31 20° 103° (ESE) 13:11:15 437.345 MHz
AO-7 28 Aug 13:04:23 13:07:46 13° 33° (NNE) 13:11:08 29.400 - 29.500 MHz
Gurwin Techsat 1B 28 Aug 13:08:36 13:12:01 18° 56° (ENE) 13:15:27 435.225 FM
SO-50 28 Aug 13:16:50 13:21:32 59° 237° (WSW) 13:26:17 436.795 FM
JAS-1B 28 Aug 13:23:05 13:32:28 55° 65° (ENE) 13:40:52 435.800 - 435.900 CW/SSB
Oscar 19 28 Aug 13:37:04 13:42:13 74° 257° (WSW) 13:47:26 437.125 CW, 437.150 USB
UOSAT-12 28 Aug 13:50:20 13:54:48 39° 42° (NE) 13:59:13 437.025 FM, 437.400 FM
ISS 28 Aug 13:58:04 14:01:19 48° 349° (NNW) 14:04:35 145.800 FM
TMSAT-1 28 Aug 14:00:13 14:04:52 33° 64° (ENE) 14:09:33 436.925 FM
ITAMSAT 1 28 Aug 14:03:42 14:08:53 89° 256° (WSW) 14:14:05 435.822 SSB
RS-15 28 Aug 14:04:11 14:13:59 35° 15° (NNE) 14:23:57 29.354 - 29.394 USB, Beacon 29.352 USB
Oscar 16 28 Aug 14:12:08 14:16:52 36° 264° (W) 14:21:39 437.025 USB, Beacon 2401.1428
Uribyol 2 28 Aug 14:14:24 14:19:32 70° 257° (WSW) 14:24:43 436.500 FM
AO-Echo 28 Aug 14:24:28 14:29:25 55° 259° (W) 14:34:15 ?
AO-27 28 Aug 14:32:20 14:37:22 51° 260° (W) 14:42:25 436.795 MHz FM
MaSat-1 28 Aug 14:39:06 14:44:04 68° 303° (WNW) 14:49:16 437.345 MHz
Gurwin Techsat 1B 28 Aug 14:46:02 14:51:21 83° 256° (WSW) 14:56:42 435.225 FM
AO-7 28 Aug 14:50:45 14:58:22 42° 57° (ENE) 15:05:58 29.400 - 29.500 MHz
Uosat F 28 Aug 15:13:14 15:17:36 31° 64° (ENE) 15:21:58 435.120 FM
JAS-1B 28 Aug 15:13:44 15:23:02 46° 263° (W) 15:31:32 435.800 - 435.900 CW/SSB
Oscar 19 28 Aug 15:21:44 15:22:29 10° 276° (W) 15:23:14 437.125 CW, 437.150 USB
UOSAT-12 28 Aug 15:30:36 15:34:58 37° 242° (WSW) 15:39:15 437.025 FM, 437.400 FM
ISS 28 Aug 15:35:12 15:38:26 45° 9° (N) 15:41:40 145.800 FM
TMSAT-1 28 Aug 15:39:45 15:44:42 40° 263° (W) 15:49:42 436.925 FM
ITAMSAT 1 28 Aug 15:46:46 15:49:08 13° 273° (W) 15:51:30 435.822 SSB
RS-15 28 Aug 16:17:41 16:28:42 69° 45° (NE) 16:40:04 29.354 - 29.394 USB, Beacon 29.352 USB
MaSat-1 28 Aug 16:18:51 16:22:08 17° 323° (NW) 16:25:26 437.345 MHz
Hamsat 28 Aug 16:20:46 16:22:45 13° 58° (ENE) 16:24:45 145.90 MHz
Sapphire 28 Aug 16:22:26 16:24:49 13° 103° (ESE) 16:27:12 437.095 MHz 1200 baud AX-25 AFSK
OPAL 28 Aug 16:23:03 16:26:54 20° 93° (E) 16:30:43 ?
Gurwin Techsat 1B 28 Aug 16:29:59 16:32:09 12° 274° (W) 16:34:19 435.225 FM
JAS-2 28 Aug 16:35:25 16:40:08 25° 61° (ENE) 16:44:31 435.800 - 435.900 CW/SSB, 435.910 FM
AO-7 28 Aug 16:42:47 16:50:56 56° 257° (WSW) 16:59:08 29.400 - 29.500 MHz
PCSat 28 Aug 16:49:53 16:54:09 24° 109° (ESE) 16:58:26 145.825 MHz
Uosat F 28 Aug 16:51:36 16:56:17 39° 262° (W) 17:01:00 435.120 FM
ISS 28 Aug 17:11:59 17:15:19 65° 208° (SSW) 17:18:37 145.800 FM
Hamsat 28 Aug 17:53:45 17:58:04 84° 257° (WSW) 18:02:28 145.90 MHz
OPAL 28 Aug 18:01:01 18:06:12 64° 291° (WNW) 18:11:21 ?
Sapphire 28 Aug 18:01:56 18:07:20 79° 121° (ESE) 18:12:47 437.095 MHz 1200 baud AX-25 AFSK
JAS-2 28 Aug 18:18:50 18:24:58 61° 258° (WSW) 18:30:28 435.800 - 435.900 CW/SSB, 435.910 FM
RS-15 28 Aug 18:30:29 18:40:34 43° 250° (WSW) 18:51:01 29.354 - 29.394 USB, Beacon 29.352 USB
PCSat 28 Aug 18:31:48 18:37:09 62° 308° (NW) 18:42:34 145.825 MHz
AO-7 28 Aug 18:43:37 18:45:38 11° 279° (W) 18:47:40 29.400 - 29.500 MHz
SO-67 28 Aug 18:46:58 18:50:22 54° 74° (ENE) 18:53:46 435.3500 MHz FM
ISS 28 Aug 18:50:02 18:51:31 12° 226° (SW) 18:52:59 145.800 FM
HO-68 28 Aug 19:01:54 19:07:08 23° 51° (NE) 19:12:22 435.675 MHz FM
STRAND 1 28 Aug 19:41:02 19:46:08 70° 103° (ESE) 19:51:13 ?
OPAL 28 Aug 19:42:06 19:44:07 12° 311° (NW) 19:46:08 ?
Sapphire 28 Aug 19:46:58 19:51:23 25° 323° (NW) 19:55:50 437.095 MHz 1200 baud AX-25 AFSK
PCSat 28 Aug 20:18:05 20:21:42 18° 331° (NNW) 20:25:19 145.825 MHz
SO-67 28 Aug 20:22:39 20:23:46 11° 271° (W) 20:24:52 435.3500 MHz FM
HO-68 28 Aug 20:46:48 20:53:58 88° 72° (ENE) 21:01:10 435.675 MHz FM
UKube-1 28 Aug 21:06:10 21:10:29 70° 73° (ENE) 21:14:50 145.840 MHz, 145.915 MHz
Oscar 11 28 Aug 21:14:40 21:18:52 52° 71° (ENE) 21:23:07 145.825 FM, Beacon 2401.500 USB
MaSat-1 28 Aug 21:17:33 21:20:36 16° 36° (NE) 21:23:29 437.345 MHz
STRAND 1 28 Aug 21:21:15 21:24:50 20° 302° (WNW) 21:28:25 ?
